(163477) = 2002 RG222 = 2006 JA41

Discovered at Haleakala on 2002-09-15 by NEAT.

Orbit

Orbit type: Main Belt

Note: WebGL enabled browser required.

epoch2024-03-31.0
epoch JD2460400.5
perihelion date2022-06-27.31794
perihelion JD2459757.81794
argument of perihelion (°)103.30270
ascending node (°)135.65232
inclination (°)10.53832
eccentricity0.0480291
perihelion distance (AU)2.9102177
Tisserand w.r.t. Jupiter3.2
ΔV w.r.t. Earth (km/sec)11.1
semimajor axis (AU)3.0570446
mean anomaly (°)118.50791
mean daily motion (°/day)0.18439590
aphelion distance (AU)3.204
period (years)5.35
P-vector [x]-0.50423685
P-vector [y]-0.84609342
P-vector [z]-0.17283264
Q-vector [x]0.85404979
Q-vector [y]-0.45896221
Q-vector [z]-0.24485231
absolute magnitude15.12
phase slope0.15
uncertainty0
referenceMPEC 2024-E50
observations used704
oppositions18
arc length (days)8616
first opposition used2000
last opposition used2023
residual rms (arc-secs)0.73
perturbers coarse indicatorM-v
perturbers precise indicator003Ek
first observation date used2000-03-12.0
last observation date used2023-10-14.0
computer nameMPCLINUX
JD of orbit computation2456612.788514
perihelion JD uncertainty (days)3.2142E-04
argument of perihelion uncertainty (°)6.8212E-05
ascending node uncertainty (°)3.5172E-05
inclination uncertainty (°)5.2559E-06
eccentricity uncertainty 5.8481E-08
perihelion distance uncertainty (AU)1.6896E-07
Minimum Orbit Intersection Distances (in AU)
for orbit epoch: 2460400.5, reference: E2024-E50
Mercury2.45883
Venus2.19791
Earth1.92014
Mars1.34344
Jupiter1.86975
Saturn5.89199
Uranus15.4159
Neptune26.6715

Observations

723 total observations over interval: 2000 03 12.39754 – 2023 10 14.264704
These data are available for download (format description).

Date (UT) J2000 RA J2000 Dec Magn Location Ref
2000 03 12.39754 11 43 47.69 +11 52 27.6 18.6   704 – Lincoln Laboratory ETS, New Mexico MPS 171596
2000 03 12.41025 11 43 47.15 +11 52 33.7 18.7   704 – Lincoln Laboratory ETS, New Mexico MPS 171596
2000 03 12.42296 11 43 46.59 +11 52 40.0 18.4   704 – Lincoln Laboratory ETS, New Mexico MPS 171596
2000 03 12.43566 11 43 46.02 +11 52 44.6 18.1   704 – Lincoln Laboratory ETS, New Mexico MPS 171596
2000 03 12.44873 11 43 45.51 +11 52 51.8 18.7   704 – Lincoln Laboratory ETS, New Mexico MPS 171596
2002 09 08.97372 23 53 05.52 -10 41 42.7 19.3 R 599 – Campo Imperatore-CINEOS MPS 123519
2002 09 08.98622 23 53 05.01 -10 41 48.5 19.9 R 599 – Campo Imperatore-CINEOS MPS 123519
2002 09 08.99872 23 53 04.48 -10 41 53.7 19.5 R 599 – Campo Imperatore-CINEOS MPS 123519
2002 09 15.46877 23 48 35.80 -11 28 25.2 20.3   608 – Haleakala-AMOS MPS 63638
2002 09 15.47895 23 48 35.36 -11 28 30.0 20.9   608 – Haleakala-AMOS MPS 63638
2002 09 15.48986 23 48 34.84 -11 28 34.3 20.1   608 – Haleakala-AMOS MPS 63638
2002 09 16.45613 23 47 53.83 -11 35 17.4 20.2   644 – Palomar Mountain/NEAT MPS 63638
2002 09 16.46658 23 47 53.39 -11 35 21.4 20.2   644 – Palomar Mountain/NEAT MPS 63638
2002 09 16.47818 23 47 52.88 -11 35 26.0 20.2   644 – Palomar Mountain/NEAT MPS 63638
2004 12 18.48207 10 06 37.14 +11 00 38.0 17.9 R G96 – Mt. Lemmon Survey MPS 171596
2004 12 18.49395 10 06 37.24 +11 00 38.7 19.6 R G96 – Mt. Lemmon Survey MPS 171596
2004 12 18.50575 10 06 37.33 +11 00 40.0 18.4 R G96 – Mt. Lemmon Survey MPS 171596
2004 12 18.51766 10 06 37.45 +11 00 41.3 19.8 R G96 – Mt. Lemmon Survey MPS 171596
2005 01 18.32247 10 01 15.71 +12 55 36.2 19.0 R 703 – Catalina Sky Survey MPS 171596
2005 01 18.33185 10 01 15.38 +12 55 39.3 19.4 R 703 – Catalina Sky Survey MPS 171596
2005 01 18.34125 10 01 15.08 +12 55 42.4 19.1 R 703 – Catalina Sky Survey MPS 171596
2005 01 18.35074 10 01 14.81 +12 55 45.8 19.2 R 703 – Catalina Sky Survey MPS 171596
2005 02 02.35138 09 51 57.95 +14 32 55.0 18.6 R 703 – Catalina Sky Survey MPS 171596
2005 02 02.35824 09 51 57.63 +14 32 58.5 19.7   704 – Lincoln Laboratory ETS, New Mexico MPS 171596
2005 02 02.35885 09 51 57.61 +14 32 58.8 18.9 R 703 – Catalina Sky Survey MPS 171596
2005 02 02.36638 09 51 57.34 +14 33 01.1 18.4 R 703 – Catalina Sky Survey MPS 171596
2005 02 02.37113 09 51 57.03 +14 33 02.3 20.1   704 – Lincoln Laboratory ETS, New Mexico MPS 171596
2005 02 02.37385 09 51 56.91 +14 33 03.6 18.3 R 703 – Catalina Sky Survey MPS 171596
2005 02 02.38501 09 51 56.49 +14 33 09.6 19.7   704 – Lincoln Laboratory ETS, New Mexico MPS 171596
2005 02 02.39794 09 51 55.90 +14 33 15.4 19.3   704 – Lincoln Laboratory ETS, New Mexico MPS 171596
2005 02 14.29350 09 42 55.18 +15 56 57.9 19.5   704 – Lincoln Laboratory ETS, New Mexico MPS 171596
2005 02 14.30574 09 42 54.64 +15 57 03.5 19.5   704 – Lincoln Laboratory ETS, New Mexico MPS 171596
2005 02 14.31849 09 42 54.03 +15 57 08.1 19.3   704 – Lincoln Laboratory ETS, New Mexico MPS 171596
2005 02 14.33073 09 42 53.42 +15 57 13.9 19.5   704 – Lincoln Laboratory ETS, New Mexico MPS 171596
2005 02 14.34316 09 42 52.79 +15 57 19.1 19.3   704 – Lincoln Laboratory ETS, New Mexico MPS 171596
2005 03 04.28988 09 29 51.63 +17 51 24.8 19.4   704 – Lincoln Laboratory ETS, New Mexico MPS 171596
2005 03 04.30463 09 29 51.14 +17 51 30.1 19.8   704 – Lincoln Laboratory ETS, New Mexico MPS 171596
2005 03 04.31878 09 29 50.53 +17 51 34.2 19.4   704 – Lincoln Laboratory ETS, New Mexico MPS 171596
2005 03 04.34829 09 29 49.39 +17 51 44.5 19.7   704 – Lincoln Laboratory ETS, New Mexico MPS 171596
2006 04 29.35402 15 47 54.44 -03 46 24.0 19.5 V 691 – Steward Observatory, Kitt Peak-Spacewatch MPS 171596
2006 04 29.37135 15 47 53.73 -03 46 19.7 19.7 V 691 – Steward Observatory, Kitt Peak-Spacewatch MPS 171596
2006 04 29.38867 15 47 53.01 -03 46 15.5 20.0 V 691 – Steward Observatory, Kitt Peak-Spacewatch MPS 171596
2006 05 07.31654 15 42 16.60 -03 16 27.0 19.8 V 691 – Steward Observatory, Kitt Peak-Spacewatch MPS 171469
2006 05 07.33741 15 42 15.65 -03 16 22.7 19.5 V 691 – Steward Observatory, Kitt Peak-Spacewatch MPS 171469
2006 05 07.35827 15 42 14.68 -03 16 18.5 19.3 V 691 – Steward Observatory, Kitt Peak-Spacewatch MPS 171469
2006 05 08.25452 15 41 34.48 -03 13 20.0   291 – LPL/Spacewatch II MPS 171469
2006 05 08.25867 15 41 34.29 -03 13 19.3   291 – LPL/Spacewatch II MPS 171469
2006 05 08.26243 15 41 34.11 -03 13 18.4   291 – LPL/Spacewatch II MPS 171469
2006 05 08.27147 15 41 33.68 -03 13 16.3 18.3 V G96 – Mt. Lemmon Survey MPS 171469
2006 05 08.27701 15 41 33.46 -03 13 14.8 18.2 V G96 – Mt. Lemmon Survey MPS 171469
2006 05 08.28228 15 41 33.21 -03 13 14.1 18.3 V G96 – Mt. Lemmon Survey MPS 171469
2006 05 09.21459 15 40 50.98 -03 10 14.6 18.5 V G96 – Mt. Lemmon Survey MPS 171469
2006 05 09.22038 15 40 50.70 -03 10 13.5 18.6 V G96 – Mt. Lemmon Survey MPS 171469
2006 05 09.22598 15 40 50.45 -03 10 12.3   291 – LPL/Spacewatch II MPS 171469
2006 05 09.22618 15 40 50.41 -03 10 12.4 18.8 V G96 – Mt. Lemmon Survey MPS 171469
2006 05 09.22995 15 40 50.27 -03 10 11.5   291 – LPL/Spacewatch II MPS 171469
2006 05 09.23189 15 40 50.16 -03 10 11.2 18.8 V G96 – Mt. Lemmon Survey MPS 171469
2006 05 09.23378 15 40 50.09 -03 10 10.7   291 – LPL/Spacewatch II MPS 171469
2006 05 09.24060 15 40 49.72 -03 10 09.8 18.9 V G96 – Mt. Lemmon Survey MPS 171469
2006 05 09.24796 15 40 49.40 -03 10 08.1 18.9 V G96 – Mt. Lemmon Survey MPS 171469
2006 05 09.25507 15 40 49.08 -03 10 06.7 18.8 V G96 – Mt. Lemmon Survey MPS 171469
2006 05 09.26224 15 40 48.72 -03 10 05.3 18.5 V G96 – Mt. Lemmon Survey MPS 171469
2006 05 20.30341 15 32 14.17 -02 43 02.1 18.6 V 703 – Catalina Sky Survey MPS 171978
2006 05 20.31082 15 32 13.77 -02 43 01.7 19.0 V 703 – Catalina Sky Survey MPS 171978
2006 05 20.31827 15 32 13.41 -02 43 00.3 18.6 V 703 – Catalina Sky Survey MPS 171978
2006 05 20.32568 15 32 12.98 -02 42 59.7 19.3 V 703 – Catalina Sky Survey MPS 171978
2006 05 24.24547 15 29 12.36 -02 37 31.7 18.9 R 699 – Lowell Observatory-LONEOS MPS 171978
2006 05 24.27106 15 29 11.28 -02 37 30.8   699 – Lowell Observatory-LONEOS MPS 171978
2006 05 24.29666 15 29 10.00 -02 37 28.3   699 – Lowell Observatory-LONEOS MPS 171978
2006 05 24.32225 15 29 08.89 -02 37 27.0   699 – Lowell Observatory-LONEOS MPS 171978
2006 05 26.34039 15 27 37.83 -02 35 34.8 18.9 V 703 – Catalina Sky Survey MPS 172797
2006 05 26.35048 15 27 37.44 -02 35 31.9 18.0 V 703 – Catalina Sky Survey MPS 172797
2006 05 26.36056 15 27 37.15 -02 35 31.8 18.0 V 703 – Catalina Sky Survey MPS 172797
2006 05 30.23144 15 24 48.77 -02 33 48.8 18.9 R 699 – Lowell Observatory-LONEOS MPS 172797
2006 05 30.25700 15 24 47.68 -02 33 48.4   699 – Lowell Observatory-LONEOS MPS 172797
2006 05 30.28254 15 24 46.58 -02 33 49.2   699 – Lowell Observatory-LONEOS MPS 172797
2006 05 30.30810 15 24 45.42 -02 33 49.2   699 – Lowell Observatory-LONEOS MPS 172797
2006 06 12.24279 15 16 49.30 -02 45 35.0 19.8 R 644 – Palomar Mountain/NEAT MPS 173874
2006 06 12.26307 15 16 48.63 -02 45 37.2 19.1 R 644 – Palomar Mountain/NEAT MPS 173874
2006 06 12.28460 15 16 47.97 -02 45 39.8 19.3 R 644 – Palomar Mountain/NEAT MPS 173874
2006 06 21.17352 15 13 03.12 -03 08 36.6 19.6 R 699 – Lowell Observatory-LONEOS MPS 173874
2006 06 21.19908 15 13 02.49 -03 08 40.8   699 – Lowell Observatory-LONEOS MPS 173874
2006 06 21.20380 15 13 02.46 -03 08 42.1   291 – LPL/Spacewatch II MPS 173874
2006 06 21.20755 15 13 02.38 -03 08 42.8   291 – LPL/Spacewatch II MPS 173874
2006 06 21.21133 15 13 02.31 -03 08 43.6   291 – LPL/Spacewatch II MPS 173874
2006 06 21.22083 15 13 02.02 -03 08 44.4 20.0 V 703 – Catalina Sky Survey MPS 173874
2006 06 21.22465 15 13 01.93 -03 08 46.1   699 – Lowell Observatory-LONEOS MPS 173874
2006 06 21.22942 15 13 01.88 -03 08 47.9 20.1 V 703 – Catalina Sky Survey MPS 173874
2006 06 21.23797 15 13 01.70 -03 08 49.7 20.0 V 703 – Catalina Sky Survey MPS 173874
2006 06 21.24661 15 13 01.56 -03 08 50.6 19.7 V 703 – Catalina Sky Survey MPS 173874
2006 06 21.25021 15 13 01.43 -03 08 49.9   699 – Lowell Observatory-LONEOS MPS 173874
2007 08 11.22665 21 56 00.06 -14 50 08.1 18.9 C 704 – Lincoln Laboratory ETS, New Mexico MPS 291359
